#timestamp,LO_Frequency,Hit,StdDev 
1642082415.4,286046999.1,N
1642082435.2,286046999.3,N
1642082455.0,286046998.9,N
1642082455.9,286046998.9,N
1642082475.8,286046996.5,N
1642082495.6,286047001.1,N
1642082515.5,286047000.9,N
1642082535.3,286047000.5,N
1642082555.1,286046996.6,N
1642082575.9,286046997.3,N
1642082595.7,286046999.5,N
1642082615.5,286046997.5,N
1642082635.4,286046996.8,N
1642082655.2,286046997.3,N
1642082675.1,286046995.3,Y
1642082676.0,286046995.3,P
1642082695.8,286046998.9,N
1642082715.6,286046998.8,N
1642082735.5,286046998.8,N
1642082755.3,286046999.5,N
1642082775.2,286046997.7,N
1642082795.9,286046997.9,N
1642082815.7,286046997.5,N
1642082835.6,286046997.9,N
1642082855.4,286046998.0,N
1642082875.2,286046995.3,Y
1642082895.1,286046997.2,P
1642082896.0,286046997.2,P
1642082915.8,286046995.1,P
1642082935.7,286046995.5,Y
1642082955.5,286046997.1,P
1642082975.3,286046996.6,P
1642082995.2,286046999.4,P
1642083015.0,286046996.9,N
1642083015.9,286046996.9,Y
1642083035.8,286047002.6,P
1642083055.6,286047002.0,N
1642083075.4,286047002.4,N
1642083095.3,286047003.6,N
1642083115.1,286047005.5,N
1642083135.9,286047002.6,N
1642083155.7,286047002.9,N
1642083175.5,286047007.2,Y
1642083195.4,286047006.9,P
1642083215.2,286047010.3,P
1642083235.1,286047012.4,P
1642083236.0,286047012.4,Y
1642083255.8,286047007.4,P
1642083275.6,286047010.3,P
1642083295.5,286047006.1,P
1642083315.3,286047003.1,N
1642083335.1,286047002.6,N
1642083355.9,286047001.0,N
1642083375.7,286046996.7,N
1642083395.6,286046997.5,N
1642083415.4,286046995.4,N
1642083435.2,286046995.8,N
1642083455.1,286046993.9,N
1642083456.0,286046993.9,N
1642083475.8,286046993.4,N
1642083495.7,286046995.5,N
1642083515.5,286046995.1,N
1642083535.3,286046996.6,N
1642083555.2,286046996.4,N
1642083575.0,286046994.6,N
1642083575.9,286046994.6,N
1642083595.7,286046991.5,N
1642083615.6,286046990.7,N
1642083635.4,286046991.9,N
1642083655.3,286046992.3,N
1642083675.1,286046990.1,N
1642083695.8,286046990.8,N
1642083715.7,286046990.6,N
1642083735.5,286046990.8,N
1642083755.4,286046990.1,N
1642083775.2,286046990.7,N
1642083795.0,286046989.9,N
1642083795.9,286046989.9,N
1642083815.8,286046987.8,N
1642083835.6,286046988.2,N
1642083855.5,286046988.0,Y
1642083875.3,286046992.7,P
1642083895.1,286046991.7,P
1642083915.9,286046992.0,P
1642083935.7,286046992.7,Y
1642083955.5,286047001.2,P
1642083975.4,286046997.0,N
1642083995.2,286046996.8,N
1642084015.1,286046999.6,N
1642084016.0,286046999.6,N
1642084035.8,286046997.9,N
1642084055.6,286046999.0,N
1642084075.5,286047001.1,N
1642084095.3,286046998.1,N
1642084115.1,286046999.0,N
1642084135.9,286046997.9,N
1642084155.7,286046997.4,N
1642084175.6,286046999.4,N
1642084195.4,286046997.8,N
1642084215.2,286046997.9,N
1642084235.1,286046997.4,N
1642084236.0,286046997.4,N
1642084255.8,286046997.6,N
1642084275.7,286046997.4,N
1642084295.5,286046995.3,N
1642084315.3,286046994.9,N
1642084335.2,286046995.9,N
1642084355.0,286046991.8,Y
1642084355.9,286046991.8,P
1642084375.8,286046995.1,N
1642084395.6,286046999.1,N
1642084415.4,286046999.1,N
1642084435.3,286046999.2,N
1642084455.1,286046999.1,N
1642084475.8,286046999.2,N
1642084495.7,286046996.7,N
1642084515.5,286046999.1,N
1642084535.4,286046998.3,N
1642084555.2,286046999.1,N
1642084575.0,286046998.7,N
1642084575.9,286046998.7,N
1642084595.8,286047000.9,N
1642084615.6,286046999.5,N
1642084635.5,286046999.2,N
1642084655.3,286046999.2,N
1642084675.1,286046999.8,N
1642084695.9,286046999.7,N
1642084715.7,286047002.5,N
1642084735.5,286047002.5,N
1642084755.4,286047000.4,N
1642084775.2,286047000.4,N
1642084795.1,286047000.2,N
1642084796.0,286047000.2,N
1642084815.8,286047002.4,N
1642084835.6,286047002.2,N
1642084855.5,286047002.7,N
1642084875.3,286046999.9,N
1642084895.1,286047000.8,N
1642084915.9,286046999.7,N
1642084935.7,286047002.7,N
1642084955.6,286047002.6,N
1642084975.4,286047000.9,N
1642084995.2,286047002.0,N
1642085015.1,286047001.3,N
1642085016.0,286047001.3,N
1642085035.8,286047002.2,N
1642085055.7,286047002.6,N
1642085075.5,286046999.6,N
1642085095.3,286046997.2,N
1642085115.2,286046997.5,N
1642085135.0,286046997.8,N
1642085135.9,286046997.8,N
1642085155.8,286046995.6,N
1642085175.6,286046996.2,N
1642085195.4,286046996.0,N
1642085215.3,286046995.3,N
1642085235.1,286046995.4,N
1642085255.8,286046998.0,N
1642085275.7,286046994.9,N
1642085295.5,286046995.2,N
1642085315.4,286046995.4,N
1642085335.2,286046996.2,N
1642085355.0,286046995.7,N
1642085355.9,286046995.7,N
1642085375.8,286046993.3,N
1642085395.6,286046993.8,N
1642085415.5,286046993.9,N
1642085435.3,286046996.3,N
1642085455.1,286046994.2,N
1642085475.9,286046994.6,N
1642085495.7,286046994.0,N
1642085515.5,286046993.4,N
1642085535.4,286046993.4,N
1642085555.2,286046996.2,N
1642085575.1,286046994.5,N
1642085576.0,286046994.5,N
1642085595.8,286046994.0,Y
1642085615.6,286046998.0,P
1642085635.5,286046998.3,N
1642085655.3,286047001.2,N
1642085675.2,286047001.1,N
1642085695.9,286046998.5,N
1642085715.7,286046996.9,N
1642085735.6,286046997.6,N
1642085755.4,286046996.6,N
1642085775.2,286046999.4,N
1642085795.1,286047001.0,N
1642085796.0,286047001.0,N
1642085815.8,286047001.9,N
1642085835.7,286047001.4,N
1642085855.5,286047002.3,N
1642085875.3,286046999.7,N
1642085895.2,286047001.8,N
1642085915.0,286047003.1,N
1642085915.9,286047003.1,N
1642085935.8,286047009.3,Y
1642085955.6,286047011.3,P
1642085975.4,286047011.1,N
1642085995.3,286047007.8,N
